DW9572 Weather Reports


Display with metric or nautical units.
time (UTC)temp
F
wind
direction
speed
MPH
gust
MPH
rain 1hr
in
rain 24hr
in
rain mn
in
humidity
%
barometer
mb
20260502220036 85 96 11.0 17.0 0.00 0.00 0.00 24 1010.9
20260502214528 85 94 9.0 18.0 0.00 0.00 0.00 23 1011.0
20260502213007 85 80 13.0 19.0 0.00 0.00 0.00 25 1011.3
20260502211504 84 86 11.0 18.0 0.00 0.00 0.00 25 1011.5
20260502210045 84 60 6.0 17.0 0.00 0.00 0.00 27 1011.5
20260502204541 84 37 16.0 21.0 0.00 0.00 0.00 28 1011.6
20260502203024 84 87 13.0 22.0 0.00 0.00 0.00 29 1011.9
20260502201518 83 77 12.0 21.0 0.00 0.00 0.00 30 1012.1
20260502200100 82 68 11.0 19.0 0.00 0.00 0.00 31 1012.1
20260502194556 81 47 15.0 21.0 0.00 0.00 0.00 30 1012.5
20260502193035 81 49 14.0 20.0 0.00 0.00 0.00 29 1012.6
20260502191539 80 33 11.0 19.0 0.00 0.00 0.00 30 1012.8
20260502190005 79 40 16.0 21.0 0.00 0.00 0.00 31 1012.9
20260502184503 79 37 14.0 23.0 0.00 0.00 0.00 29 1013.2
20260502183109 78 25 12.0 19.0 0.00 0.00 0.00 30 1013.1
20260502181539 78 83 14.0 20.0 0.00 0.00 0.00 32 1013.2
20260502163040 72 48 13.0 21.0 0.00 0.00 0.00 36 1013.5
20260502161510 71 75 10.0 17.0 0.00 0.00 0.00 37 1013.5
20260502151518 70 41 11.0 16.0 0.00 0.00 0.00 38 1013.5
20260502123111 62 51 4.0 8.0 0.00 0.00 0.00 48 1012.8
20260502121554 53 82 7.0 8.0 0.00 0.00 0.00 71 1012.7
20260502114543 60 124 0.0 2.0 0.00 0.00 0.00 52 1012.9
20260502113049 64 11 6.0 11.0 0.00 0.00 0.00 44 1012.6
20260502111544 64 63 5.0 8.0 0.00 0.00 0.00 44 1012.5
20260502110042 60 39 7.0 8.0 0.00 0.00 0.00 50 1012.6
20260502104522 59 60 1.0 3.0 0.00 0.00 0.00 56 1012.7
20260502103021 54 300 2.0 7.0 0.00 0.00 0.00 68 1012.8
20260502101511 55 276 2.0 4.0 0.00 0.00 0.00 65 1012.7
20260502091508 69 26 7.0 14.0 0.00 0.00 0.00 35 1012.4
20260502071505 68 360 7.0 14.0 0.00 0.00 0.00 39 1012.6
20260502070005 69 4 9.0 12.0 0.00 0.00 0.00 38 1012.5
20260502064555 69 357 9.0 12.0 0.00 0.00 0.00 37 1012.5
20260502063053 70 358 8.0 13.0 0.00 0.00 0.00 37 1012.6
20260502061553 69 356 12.0 14.0 0.00 0.00 0.00 37 1012.6
20260502060054 68 350 13.0 15.0 0.00 0.00 0.00 39 1012.6
20260502054551 68 350 12.0 15.0 0.00 0.00 0.00 39 1012.5
20260502053056 68 350 13.0 15.0 0.00 0.00 0.00 40 1012.4
20260502051600 68 354 13.0 15.0 0.00 0.00 0.00 40 1012.4
20260502050051 69 349 13.0 15.0 0.00 0.00 0.00 39 1012.4
20260502044535 69 352 12.0 14.0 0.00 0.00 0.00 39 1012.4
20260502043037 70 352 13.0 15.0 0.00 0.00 0.00 38 1012.4
20260502041512 69 357 12.0 13.0 0.00 0.00 0.00 40 1012.4
20260502040011 69 355 12.0 14.0 0.00 0.00 0.00 40 1012.2
20260502034553 69 352 13.0 14.0 0.00 0.00 0.00 40 1012.1
20260502033053 69 348 13.0 14.0 0.00 0.00 0.00 40 1012.0
20260502031535 70 349 12.0 13.0 0.00 0.00 0.00 40 1011.9
20260502030039 71 347 11.0 12.0 0.00 0.00 0.00 40 1011.7
20260502024525 73 352 10.0 11.0 0.00 0.00 0.00 39 1011.7
20260502023019 76 11 7.0 10.0 0.00 0.00 0.00 33 1011.6
20260502021601 77 23 6.0 8.0 0.00 0.00 0.00 32 1011.5
20260502020058 77 11 6.0 8.0 0.00 0.00 0.00 33 1011.7
20260502014540 77 27 6.0 7.0 0.00 0.00 0.00 32 1011.7
20260502013040 78 8 5.0 6.0 0.00 0.00 0.00 32 1012.0
20260502011517 78 37 5.0 6.0 0.00 0.00 0.00 30 1012.0
20260502010025 79 49 4.0 5.0 0.00 0.00 0.00 27 1012.1
20260502004602 79 68 5.0 8.0 0.00 0.00 0.00 26 1012.2
20260502003056 80 91 6.0 9.0 0.00 0.00 0.00 24 1012.4
20260502001546 80 91 7.0 9.0 0.00 0.00 0.00 24 1012.5
20260502000037 80 43 7.0 10.0 0.00 0.00 0.00 25 1012.6
20260501234515 80 93 9.0 11.0 0.00 0.00 0.00 25 1012.8
20260501233014 80 45 6.0 11.0 0.00 0.00 0.00 26 1012.7
20260501231557 80 91 6.0 9.0 0.00 0.00 0.00 26 1012.9
20260501230101 80 82 8.0 13.0 0.00 0.00 0.00 26 1013.1
20260501224536 80 97 6.0 8.0 0.00 0.00 0.00 25 1013.3
20260501223029 79 82 6.0 12.0 0.00 0.00 0.00 25 1013.6
20260501221512 79 91 7.0 13.0 0.00 0.00 0.00 26 1013.8